976  
ASUS41 KALY 250710  
RWRALY  
 
NEW YORK STATE HOURLY WEATHER ROUNDUP  
NATIONAL WEATHER SERVICE ALBANY NY  
200 AM EST SUN FEB 25 2024  
 
NOTE: "FAIR" INDICATES FEW OR NO CLOUDS BELOW 12,000 FEET WITH NO  
SIGNIFICANT WEATHER AND/OR NO S TO VISIBILITY
.  
 
NYZ032-033-038>043-046>054-057>066-NYZ062>081-082-084-250800-  
EAST  
 
 
CITY SKY/WX TMP DP RH WIND PRES REMARKS
 
ALBANY CLEAR 15 2 56 NW5 30.10R WCI 8  
GLENS FALLS CLEAR 8 5 87 CALM 30.08R  
POUGHKEEPSIE CLEAR 19 6 57 N9 30.06R WCI 8  
NEWBURGH CLEAR 19 9 63 CALM 30.04R  
MONTGOMERY CLEAR 19 2 47 NW7 30.03R WCI 10  
WHITE PLAINS CLEAR 22 6 50 N5 30.02R WCI 16  
ISLIP CLEAR 25 7 46 N13 30.03R WCI 14  
NEW YORK CITY CLEAR 27 5 39 N12 30.05R WCI 17  
CENTRAL PARK CLEAR 26 2 35 VRB7 30.07R WCI 18  

 
 
NYZ005>009-017-018-044>046-055-056-250800-  
CENTRAL  
 
 
CITY SKY/WX TMP DP RH WIND PRES REMARKS
 
FULTON CLEAR 18 9 68 SW7 30.06R WCI 9  
SYRACUSE MOCLDY 20 7 57 SW6 30.07R WCI 12  
ROME CLOUDY 10 4 76 E3 30.09R  
ELMIRA CLEAR 13 9 84 CALM 30.06R  
BINGHAMTON CLEAR 11 3 70 W3 29.98S  

 
 
NYZ026>034-041>043-087-250800-  
NORTH  
 
 
CITY SKY/WX TMP DP RH WIND PRES REMARKS
 
WATERTOWN CLEAR 16 11 80 S6 30.04R WCI 7  
FORT DRUM CLEAR 13 7 75 S8 30.00R WCI 2  
OGDENSBURG CLEAR 9 3 78 S5 30.01S WCI 0  
MASSENA CLEAR 8 1 73 S3 30.05S  
SARANAC LAKE CLEAR -2 -7 79 CALM 29.92S  
PLATTSBURGH CLEAR 7 0 73 CALM 30.06S  

 
 
NYZ001>004-010>016-019>021-085-250800-  
WEST  
 
 
CITY SKY/WX TMP DP RH WIND PRES REMARKS
 
NIAGARA FALLS PTCLDY 22 13 68 W6 30.04R WCI 14  
BUFFALO MOCLDY 23 15 71 S10 30.03S WCI 12  
DUNKIRK CLEAR 23 11 60 S9 30.06S WCI 13  
JAMESTOWN CLEAR N/A N/A N/A SW3 30.01R  
WELLSVILLE CLEAR 20 3 48 W3 29.97R  
ROCHESTER CLEAR 18 9 68 SW6 30.06R WCI 10  
PENN YAN CLEAR 16 10 77 SW6 30.05R WCI 7  

 
 
KEY  
WCI = WIND CHILL INDEX  
VSB = VISIBILITY  
HX = HEAT INDEX  

 
 
 
CLICK HERE TO GO TO PREVIOUS BULLETINS.

The Nexlab NY Page
The Nexlab VT Page
The Nexlab MA Page
The Nexlab CT Page Main Text Page